Showing default

IRIDIUM 164, 43577

Orbit data source: Space-Track

IRIDIUM 164, 43577 is a payload satellite owned by Iridium (US) in LEO that was launched on Wed, 25 Jul 2018 UTC via an FALCON 9 launch vehicle from the Air Force Western Test Range (AFWTR). Payload-class satellites include a variety of spacecraft equipped with specific instruments for various scientific and technological missions. These include communications satellites like Starlink; space stations such as the ISS; scientific satellites like the Hubble; Earth observation satellites from companies like Planet Labs, Umbra, and HawkEye 360; GPS; miniature CubeSats for education and research; and military/defense satellites.

Loading next visibility...
Identifier
43577, 2018-061J
Orbit
LEO
Country
Flag of USUS
Related business
Manufacturer
NGIS SSG Gilbert
Mission
Operational Commercial Communications
Bus & Motor
ELITEBUS, Unknown motor
Mass
860 kg wet, 700 kg dry
Launch date (UTC)
2018-07-25 (8 years ago)
Launch vehicle
FALCON 9
Launch site
Air Force Western Test Range (AFWTR)
Object type
Payload
Rocket body
Debris
Shape & HBR
Trap Box + 2 Pan, 4.8 m
Radar Cross Section
10.154 m², Large (>1 m²)

Expand to show TLE details & history
Last TLE update: 12 hours ago

TLE from 12 hours ago
0 IRIDIUM 164
1 43577U 18061J   26123.86516449  .00000206  00000-0  66351-4 0  9992
2 43577  86.3951  75.2982 0002168  81.4274 278.7168 14.34219462407068
Epoch: 2026-05-03T20:45Z
TLE epoch observation values (Epoch: 2026-05-03T20:45:50.211Z)
Latitude
0.00001°
Longitude
-97.9236°
Altitude
780.478 km
Speed
7.464 km/s
True Right ascension
05h 01m 11s
True Declination
0° 00' 00"
Sunlit
Object was in daylight at epoch
Visualization orbit readout
Latitude
Unknown
Longitude
Unknown
Altitude
Unknown
Speed
Unknown
Apparent Right ascension
Unknown
Apparent Declination
Unknown
Sunlit
N/A
Visualization observer readout
Local Sidereal Time
16:54:09
Azimuth
Unknown
Elevation
Unknown
Doppler factor
Unknown
Orbital elements
Apogee altitude
776.177 km
Perigee altitude
773.075 km
Semi-major axis
7,152.763 km
Eccentricity
0.00022
Inclination
86.3951°
RAAN
75.2982°
Arg. of periapsis
81.4274°
True anomaly
278.69224°
Mean anomaly
278.7168°
Eccentric anomaly
278.70452°
Mean motion
3.58783 °/min
Orbital period
100.34 mins
BSTAR
0.000066351
Loading maneuver chart data...
Computing Atmospheric mass density...
Loading historical data...
Loading historical data...
Loading historical data...
Loading historical data...
Loading historical data...
Loading historical data...
Loading historical data...

Documentation

Showing up to 5 results
|